Regional Weather Roundup
Issued by NWS

Home | Current Version | Previous Version | Text Only | Print | Product List | Glossary On
Versions: 1 2 3 4 5 6 7 8 9 10 11 12 13 14 15 16 17 18 19 20 21 22 23 24 25 26 27 28 29 30 31 32 33 34 35 36 37 38 39 40 41 42 43 44 45 46 47 48 49 50
000
ASUS43 KTOP 191859
RWRKS

WEATHER ROUNDUP FOR KANSAS
NATIONAL WEATHER SERVICE GOODLAND KS
100 PM CST MON FEB 19 2018

NOTE:  "FAIR" INDICATES FEW OR NO CLOUDS BELOW 12,000 FEET WITH NO
SIGNIFICANT WEATHER AND/OR OBSTRUCTIONS TO VISIBILITY.

KSZ001>006-013>018-027>032-041>047-192000-
NORTHWEST KANSAS

CITY           SKY/WX    TMP DP  RH WIND       PRES   REMARKS
GOODLAND       LGT SNOW  16  11  80 N10       29.75F WCI   4
HAYS           CLOUDY    25  16  68 N13       29.84F WCI  14
HILL CITY      CLOUDY    22  14  71 N14       29.85F WCI   9
RUSSELL        CLOUDY    26  17  68 N12       29.83F WCI  16
$$

KSZ061>065-074>080-084>089-192000-
SOUTHWEST KANSAS

CITY           SKY/WX    TMP DP  RH WIND       PRES   REMARKS
DODGE CITY     CLOUDY    27  16  63 N14       29.81F WCI  16
GARDEN CITY    CLOUDY    26  14  60 N10       29.79F WCI  16
GREAT BEND     CLOUDY    28  19  69 N14       29.83F WCI  17
LIBERAL        CLOUDY    32  19  58 N9        29.77F
$$

KSZ066>073-081>083-090>101-192000-
SOUTHEAST KANSAS

CITY           SKY/WX    TMP DP  RH WIND       PRES   REMARKS
CHANUTE        CLOUDY    46  43  89 NW12      29.76S
COFFEYVILLE    CLOUDY    66  64  93 S15       29.72F
HUTCHINSON     CLOUDY    28  23  81 NW13      29.81F WCI  17
MEDICINE LODGE   N/A     33  23  66 N14       29.79F WCI  23
NEWTON         CLOUDY    28  24  85 N12       29.80F WCI  18
PARSONS        CLOUDY    64  64 100 S9        29.72F
WICHITA INTL   CLOUDY    30  26  85 N17       29.79F WCI  18
WICHITA JABRA  CLOUDY    30  26  85 N16       29.79F WCI  19
WICHITA MCCONL CLOUDY    30  25  81 N13       29.79  WCI  20
WINFIELD       CLOUDY    35  34  96 N14       29.78F WCI  26
$$

KSZ007>012-019>026-033>040-048>060-102>105-192000-
NORTHEAST KANSAS

CITY           SKY/WX    TMP DP  RH WIND       PRES   REMARKS
CONCORDIA      CLOUDY    23  18  81 NW15      29.84F WCI  10
EMPORIA        CLOUDY    31  28  89 NW10      29.79S WCI  22
LAWRENCE       CLOUDY    35  32  88 NW13      29.78F WCI  26
MANHATTAN      CLOUDY    29  24  82 N8        29.82F
OLATHE IND     CLOUDY    39  35  86 NW13      29.75F WCI  31
OLATHE EXE     CLOUDY    40  36  86 N15       29.71F WCI  32
SALINA         CLOUDY    29  20  69 NW16      29.84F WCI  17
TOPEKA BILLARD CLOUDY    33  29  85 NW12      29.79F WCI  24
TOPEKA FORBES  CLOUDY    33  29  85 NW14      29.79F WCI  23
$$



USA.gov is the U.S. government's official web portal to all federal, state and local government web resources and services.